Location: Recife
(8.0585°S, 34.8848°W)
Time: 13:17:25
(UTC-03:00)

Injun/Solrad 3 - Pass Details

Date: 17 April 2026
Orbit: 868 x 988 km, 66.8° (Epoch: 12 May)

Event Time Altitude Azimuth Distance (km) Brightness Sun altitude
Rises 19:29:13 0° 203° (SSW) 3,460 11.1 -33.3°
Reaches altitude 10° 19:31:42 10° 205° (SSW) 2,516 10.3 -33.9°
Enters shadow 19:33:11 19° 207° (SSW) 1,968 9.7 -34.3°
Maximum altitude 19:37:29 75° 289° (WNW) 900 - -35.4°
Drops below altitude 10° 19:43:17 10° 14° (NNE) 2,522 - -36.8°
Sets 19:45:47 0° 16° (NNE) 3,469 - -37.4°
